User: anonymous   Login
Location: Anglesey
(53.1800°N, 4.2200°W)
Time: 18:18:45
(UTC+00:00)
Language:

Tiangong 1 - Orbit

View from above orbital plane
View from above orbital plane
View from above satellite
View from above satellite

Ground track
Ground track

The orbit data is extracted from the following two-line orbital elements,

1 37820U 11053A   18022.14879221  .00082408  11140-4  15452-3 0  9990
2 37820  42.7524 281.7612 0019021 220.6435 261.2568 16.00146388362770
Epoch (UTC): 22 January 2018 03:34:15
Eccentricity: 0.0019021
inclination: 42.7524°
perigee height: 261 km
apogee height: 286 km
right ascension of ascending node: 281.7612°
argument of perigee: 220.6435°
revolutions per day: 16.00146388
mean anomaly at epoch: 261.2568°
orbit number at epoch: 36277

The dashed part of the orbit path shows where the satellite is in the earth's shadow,  

DLR